{"data":{"norad_id":40733,"intl_designator":"2015-034B","name":"STAR ONE C4","alt_names":[],"object_type":"PAYLOAD","status":"ACTIVE","operator":null,"country":"BRAZ","launch_date":"2015-07-15","launch_site_code":"FRGUI","launch_vehicle":null,"mission":null,"orbit_class":"UNKNOWN","rcs_meters":23.3101,"size_class":null,"mass_kg":null,"dimensions":null,"purposes":["comms"],"wikipedia_slug":null,"has_3d_model":false,"image_url":null,"decayed_at":null,"tle_current":{"epoch":"2026-09-20T03:50:28.650048Z","epoch_age_seconds":51330,"freshness":"FRESH","line1":"1 40733U 15034B   26263.16005382 -.00000269  00000+0  00000+0 0  9990","line2":"2 40733   0.0423 357.5413 0000946 183.3494 165.7991  1.00271173 40966","mean_motion":1.00271173,"eccentricity":9.46e-5,"inclination_deg":0.0423,"raan_deg":357.5413,"arg_perigee_deg":183.3494,"mean_anomaly_deg":165.7991,"bstar":0,"rev_number":4096,"period_min":1436.1056691737,"perigee_km":35782.777728006,"apogee_km":35790.755327753,"semimajor_km":42164.90352788,"source":"CELESTRAK","updated_at":"2026-09-20T09:00:35.217513Z"}}}